Theta_e
352 357 350 345 342 342 343 347 351 347 344 336 331 332 334 336 334 330 335 341 344 341 341 342 341 341 339 336 330 327 328 329 329 334 332 329 329 331 334 335 337 340 331
354 357 349 344 340 341 343 347 350 346 343 334 333 334 333 336 332 329 339 347 348 341 342 347 342 340 338 333 329 327 329 335 342 344 338 338 337 330 330 330 337 342 330
356 358 350 342 339 342 344 349 348 345 343 336 336 335 336 336 330 328 338 346 348 344 337 342 343 340 334 328 326 326 330 333 336 336 343 344 343 333 331 331 329 329 331
357 358 353 340 338 343 346 349 346 345 344 341 341 339 337 335 327 332 337 345 347 345 337 329 331 331 327 326 326 328 330 332 334 338 344 341 340 330 332 330 329 330 332
357 357 354 338 337 343 346 345 345 345 345 344 344 342 339 331 328 338 341 343 344 343 335 334 333 330 328 328 332 341 344 344 344 349 347 346 344 343 331 330 333 333 329
357 356 354 337 334 337 342 344 343 342 343 344 344 342 338 328 336 338 338 336 341 342 343 340 335 334 332 333 342 342 341 341 345 345 345 345 345 346 335 332 332 334 334
356 355 352 336 332 334 336 338 336 336 338 341 343 340 332 331 337 337 335 332 340 339 341 337 335 334 336 340 339 340 339 338 346 345 343 345 347 344 342 337 335 334 333
354 355 352 337 332 332 333 333 332 332 333 334 334 334 329 334 336 335 335 331 334 334 336 335 335 337 338 337 339 340 339 338 343 344 343 340 339 337 342 343 340 338 336
352 354 352 346 339 332 333 332 331 330 329 330 331 330 330 333 335 335 335 329 329 329 333 333 334 335 336 338 340 339 338 337 340 341 338 338 337 327 326 328 338 342 341
352 352 351 347 344 343 342 332 332 330 329 330 329 329 330 333 335 334 335 331 327 328 329 332 334 335 336 336 336 335 333 330 338 338 335 334 328 326 326 325 326 336 340
353 351 351 349 345 342 343 342 335 332 331 331 332 330 333 338 340 339 340 338 334 330 328 330 331 331 332 332 331 329 328 334 333 331 330 330 327 332 330 326 331 330 330
353 352 351 351 347 344 343 345 344 344 342 341 340 340 338 339 340 341 341 343 339 338 332 327 326 327 328 335 336 329 329 331 331 330 330 329 334 334 334 334 336 337 341
354 353 352 353 350 346 345 346 344 345 344 344 344 343 341 342 342 341 343 343 345 342 342 336 336 333 331 333 332 332 331 332 332 332 332 333 337 338 338 338 340 341 341
354 353 353 354 353 349 347 348 346 346 346 346 347 347 345 345 344 342 341 340 341 341 340 340 339 337 337 336 334 333 333 333 334 337 337 339 340 340 338 337 339 338 339
354 353 354 354 354 352 349 349 349 348 348 348 348 348 347 346 345 344 343 342 342 340 341 342 339 338 338 337 337 337 337 336 339 343 343 341 334 336 338 335 336 328 329
355 354 355 355 355 354 353 352 351 350 350 349 347 347 348 347 347 346 346 345 342 341 340 339 339 339 339 338 340 343 342 340 340 341 340 339 336 333 335 335 329 323 321
356 356 356 355 355 354 355 356 353 352 352 350 348 349 349 349 349 349 347 345 342 342 342 342 341 342 343 343 345 345 343 342 341 340 339 338 338 337 334 333 331 321 322
356 356 357 355 355 355 355 355 352 352 352 350 349 349 350 350 349 349 347 345 343 343 343 342 342 343 345 345 345 345 342 342 341 340 338 337 337 338 338 334 328 321 319
359 357 357 355 354 354 353 355 352 353 352 350 350 349 350 350 350 349 347 346 346 344 344 345 346 345 344 344 343 342 341 341 341 340 339 338 338 338 338 335 325 319 319
357 360 358 356 354 354 352 352 351 351 351 351 350 350 350 351 351 351 348 347 347 343 344 346 345 345 343 340 340 338 337 338 339 339 339 337 336 337 336 335 332 323 321
354 358 360 358 354 351 350 350 351 351 350 349 349 350 350 349 350 351 349 347 346 344 347 343 341 340 341 339 340 339 339 337 339 335 334 335 336 334 328 328 326 324 325
349 355 357 358 352 349 350 351 349 350 348 348 347 348 348 349 349 349 348 346 346 344 341 339 339 340 340 341 340 336 337 333 334 329 325 326 326 326 324 325 328 328 329
343 349 354 356 350 349 350 348 347 348 348 347 347 347 346 346 347 345 345 344 343 340 341 342 340 340 341 340 340 338 338 335 333 328 330 329 329 328 327 326 326 327 327
337 343 350 353 349 347 346 347 349 348 347 346 346 344 344 343 343 344 344 343 341 340 339 342 342 342 341 339 338 339 339 338 337 332 325 326 327 325 324 324 324 323 323
331 339 348 351 345 342 343 347 348 348 347 346 345 346 345 344 344 343 344 341 342 342 341 342 342 341 338 340 337 337 337 335 333 334 331 326 324 323 321 321 322 323 323
333 342 349 342 342 340 344 346 346 347 345 344 344 343 344 342 342 342 341 341 341 340 339 340 340 339 340 339 337 335 332 329 326 326 327 327 325 321 321 321 321 322 321
Wind_Speed
23 28 31 28 25 22 22 26 29 28 27 25 27 25 24 24 23 23 23 21 19 17 15 15 16 13 10 10 10 10 10 10 10 11 9 8 8 7 7 7 9 5 5
27 27 32 29 26 24 24 27 31 29 28 27 26 25 24 23 23 23 23 20 16 14 13 14 14 13 10 10 10 10 11 10 10 9 8 7 5 5 4 5 9 3 3
27 26 31 31 28 25 26 30 31 30 28 27 26 24 22 22 22 23 22 18 15 13 13 12 12 10 10 11 11 11 11 10 9 8 8 4 4 3 4 3 3 3 2
28 28 29 33 30 28 29 32 31 30 28 27 25 23 22 21 22 22 20 17 15 13 13 12 12 12 11 12 13 13 11 9 7 6 3 4 4 1 3 2 2 2 2
27 27 28 34 32 30 31 31 30 28 27 26 24 22 21 22 22 20 18 16 14 13 13 12 12 12 13 14 14 11 8 6 4 2 1 1 1 3 1 2 1 1 3
27 26 30 35 33 32 30 30 29 27 26 25 23 22 22 23 22 20 17 16 15 14 13 12 12 12 13 14 12 9 6 4 4 2 1 2 3 5 3 3 5 6 5
27 26 30 35 34 33 32 31 28 26 25 24 23 22 22 22 20 18 16 15 15 15 14 13 13 13 14 13 10 8 5 3 3 2 1 1 0 8 7 6 5 5 6
25 25 28 33 33 33 33 31 29 26 25 24 23 22 22 22 20 17 15 15 15 15 14 14 13 14 13 11 9 6 5 4 5 3 2 1 1 3 6 10 10 9 9
23 24 26 26 29 31 30 29 27 26 25 24 24 23 23 22 20 17 16 15 15 15 14 14 14 13 12 9 8 7 6 6 5 5 4 3 4 6 7 8 12 15 14
23 24 25 25 25 24 25 27 26 25 25 24 24 23 22 21 19 17 16 15 15 15 14 13 13 13 12 11 10 9 7 6 6 7 7 7 9 8 8 9 9 10 14
23 23 25 25 25 24 23 23 25 24 23 23 22 22 22 17 17 16 16 16 15 14 14 13 14 14 13 12 11 11 9 9 10 10 10 12 9 9 10 10 9 9 10
25 25 25 24 25 24 23 21 21 19 19 18 18 19 17 15 16 15 16 17 15 13 13 14 15 15 14 12 12 13 12 12 12 11 11 13 9 7 6 7 8 8 8
26 25 24 24 24 25 22 22 22 20 19 18 18 18 16 15 15 16 14 15 13 14 12 12 12 12 13 13 13 13 12 12 12 12 11 13 10 8 6 6 6 7 7
27 26 25 26 25 25 23 22 22 20 20 19 19 19 17 16 15 15 15 14 14 14 14 13 13 13 14 14 14 14 13 13 12 11 9 11 9 8 7 7 6 6 6
27 27 27 26 25 25 22 21 21 20 20 20 20 20 19 17 15 15 14 13 13 14 14 14 14 13 15 15 14 14 14 13 12 10 8 9 9 10 9 5 4 5 6
26 27 26 26 25 24 23 20 19 19 18 19 19 19 20 17 15 15 14 13 13 13 13 14 14 14 15 15 14 14 13 13 11 11 11 11 12 9 10 7 3 7 7
26 24 25 25 24 24 23 20 19 18 17 18 18 17 19 17 15 14 13 13 13 12 12 12 13 14 14 13 12 11 11 11 12 12 11 12 13 13 15 14 8 7 8
23 26 24 23 24 23 24 19 19 17 16 16 16 16 18 18 16 15 14 14 13 13 12 12 13 13 13 11 11 12 13 14 16 16 18 17 15 15 14 12 9 10 9
23 23 25 24 24 23 23 18 18 15 15 14 14 14 15 16 17 16 16 15 14 14 13 12 13 13 11 9 12 16 19 20 21 18 17 18 16 16 13 14 10 11 12
21 21 21 22 20 20 19 18 13 13 13 11 12 13 13 14 15 16 17 15 14 13 12 13 13 10 10 13 14 17 19 19 16 13 14 14 13 10 10 13 13 12 14
19 21 22 21 20 21 20 19 14 15 13 12 11 11 11 13 14 17 16 15 15 15 14 16 12 11 15 14 9 17 18 14 14 11 11 8 7 11 11 12 9 11 12
21 21 22 21 20 22 20 17 14 13 12 11 11 11 11 12 13 14 16 14 15 17 16 14 13 15 13 14 8 12 8 5 10 7 8 8 7 8 10 11 11 13 14
20 22 22 22 19 20 17 17 14 13 10 11 9 9 11 10 11 13 14 12 14 15 14 14 14 15 16 11 11 10 7 6 6 11 8 9 8 11 13 14 15 17 17
21 20 18 19 17 17 20 16 16 14 10 9 9 8 8 10 10 10 10 12 12 11 13 14 13 13 11 14 11 13 13 13 6 8 14 12 14 16 14 18 18 19 20
18 16 16 16 15 16 17 12 13 9 6 5 5 6 7 8 9 9 11 13 14 13 12 12 12 11 11 15 13 13 11 13 14 11 12 17 21 20 21 19 22 21 23
16 16 16 18 15 16 14 11 9 8 5 5 3 5 7 8 7 8 9 9 10 10 9 10 9 10 11 9 10 10 13 13 15 15 12 14 17 28 27 24 24 23 25
Wind_Direction
156 161 163 166 169 172 174 173 170 166 164 162 161 160 159 157 156 152 148 144 144 143 146 150 153 152 140 136 129 125 122 121 125 120 117 116 113 119 126 128 107 107 137
156 162 164 167 170 172 174 172 170 167 165 163 162 162 161 159 158 155 151 145 145 143 143 146 152 152 146 139 134 131 126 129 127 129 120 97 112 118 121 113 118 152 133
157 161 164 169 170 171 172 169 169 168 166 165 165 164 162 161 160 157 156 153 152 149 150 151 157 158 156 147 142 136 132 130 127 121 112 135 118 115 117 126 141 165 152
160 163 167 171 170 169 167 168 170 170 170 169 167 164 165 163 161 158 159 160 162 159 160 163 166 165 158 150 142 135 135 129 126 113 112 113 111 141 115 141 164 170 209
162 163 168 171 172 170 170 171 172 172 172 172 171 168 167 164 162 162 163 166 168 165 162 161 161 157 152 148 142 139 135 131 118 101 127 147 141 224 196 202 207 196 186
163 164 174 172 173 173 173 173 173 173 174 176 174 172 170 167 166 165 167 169 170 165 160 161 160 157 154 152 150 148 150 147 106 155 120 285 231 246 260 228 207 214 244
164 166 170 173 175 175 174 174 172 173 174 176 176 175 171 169 168 168 169 169 170 165 167 166 164 162 161 161 162 165 173 188 260 179 140 69 17 261 256 256 258 259 262
166 167 169 175 177 176 176 175 173 173 174 177 178 178 174 173 173 174 173 171 172 173 173 171 171 171 172 175 179 185 208 222 273 276 290 286 295 330 289 279 278 277 277
170 168 169 172 177 179 178 176 174 173 174 177 178 178 177 178 179 179 177 177 178 180 183 180 180 182 185 190 197 209 231 250 277 283 280 265 282 289 285 287 281 276 279
173 173 173 173 175 176 179 181 178 176 176 177 179 178 180 181 182 184 185 185 185 188 189 191 192 193 197 203 213 224 237 269 246 257 257 241 247 262 267 270 265 271 276
178 178 177 176 177 179 181 183 182 181 180 180 180 180 180 178 187 196 192 205 194 194 194 198 202 205 211 218 226 231 235 241 250 254 254 246 256 255 253 241 237 251 262
181 180 180 179 181 182 182 183 181 182 182 180 179 182 180 189 193 197 205 212 205 204 205 208 212 216 219 225 231 234 236 235 243 251 257 252 250 247 251 250 250 253 269
183 180 183 181 183 185 185 184 187 188 189 189 187 185 190 195 198 202 207 212 213 220 220 220 224 227 234 238 241 243 243 246 252 252 249 243 234 232 239 252 267 271 268
187 186 184 185 187 189 188 188 191 192 194 195 197 193 195 198 201 205 210 210 214 220 226 226 229 230 232 236 243 249 250 254 254 257 255 257 267 267 263 263 273 277 279
191 190 188 188 189 191 192 194 197 198 198 201 200 201 202 204 206 207 213 216 220 223 227 232 238 241 244 244 248 252 253 255 254 251 251 275 301 287 268 262 259 273 279
193 194 189 191 191 191 195 197 199 203 202 204 206 207 206 209 213 213 215 220 224 230 235 237 239 243 247 252 253 254 248 249 247 252 260 266 281 273 262 244 284 310 302
197 192 193 193 194 194 196 198 200 206 210 209 210 209 211 213 215 220 222 227 227 231 232 237 241 242 246 244 249 246 250 254 258 264 270 276 275 271 262 251 243 289 266
195 195 192 194 197 195 196 198 202 209 214 215 213 212 214 214 216 219 225 229 232 229 228 234 237 239 242 239 254 260 264 266 266 269 279 276 272 261 253 267 269 259 260
202 196 196 196 199 198 196 198 199 204 213 218 215 216 209 213 219 223 230 232 224 228 226 227 231 238 242 258 275 280 272 270 269 271 270 271 272 268 250 243 279 258 260
201 200 199 196 198 194 191 191 191 204 209 208 206 207 211 217 225 229 236 234 226 229 231 231 239 234 246 267 281 278 273 271 267 260 263 268 259 246 252 262 278 265 278
196 197 196 194 192 185 175 182 186 191 193 195 204 212 213 215 223 224 227 229 228 228 226 223 246 272 278 272 267 280 262 250 244 253 252 255 234 257 263 269 268 273 282
194 196 196 191 180 178 177 185 186 190 189 197 202 207 220 223 225 225 231 230 224 217 228 230 244 254 265 255 268 284 270 253 222 238 250 249 256 278 279 279 284 286 287
196 195 194 189 177 178 170 163 167 175 180 191 203 203 208 215 219 219 223 227 238 233 228 235 238 242 254 255 244 272 289 282 345 284 233 262 282 294 299 289 286 284 283
200 196 190 184 166 173 167 171 179 186 193 209 213 210 217 215 216 229 225 224 234 237 243 256 249 232 239 260 248 250 267 288 290 290 281 271 269 283 289 293 291 288 289
199 183 178 169 152 162 169 174 182 198 185 183 196 192 200 207 214 226 228 231 231 241 242 238 234 237 245 253 273 273 265 272 264 274 291 294 292 290 291 293 291 288 288
185 170 156 135 140 148 158 174 179 170 167 170 188 211 202 207 216 218 218 224 229 233 237 239 237 240 242 259 270 277 278 288 295 294 289 288 292 294 294 292 287 286 289